THOR ABLESTAR DEB *, 48812

Orbit data source: Space-Track

THOR ABLESTAR DEB *, 48812 is space debris in LEO originally from a launch on Thu, 29 Jun 1961 UTC launched from the Air Force Eastern Test Range (AFETR). Debris objects in space refer to the collection of defunct objects orbiting the Earth. Examples of debris include non-operational satellites, rocket bodies, and fragments generated from explosions, collisions, or faulty payload assembly.

Loading next visibility...
Identifier
48812, 1961-015MQ
Orbit
LEO
Country
Flag of USUS
Related business
Manufacturer
Unknown
Mission
Spacecraft
Bus & Motor
Unknown
Mass
Unknown
Launch date (UTC)
1961-06-29 (65 years ago)
Launch vehicle
Unknown
Launch site
Air Force Eastern Test Range (AFETR)
Object type
Payload
Rocket body
Debris
Shape & HBR
Unknown shape, 0.1 m
Radar Cross Section
Small (<0.1 m²)

Expand to show TLE details & history
Last TLE update: 6 days ago

TLE from 6 days ago
0 THOR ABLESTAR DEB *
1 48812U 61015MQ  26094.61019082  .00000500  00000-0  31416-2 0  9996
2 48812  67.3168 309.7805 0350381  54.4358 308.8779 12.43839437563973
Epoch: 2026-04-04T14:38Z
TLE epoch observation values (Epoch: 2026-04-04T14:38:40.486Z)
Latitude
-0.00002°
Longitude
-102.8157°
Altitude
1,325.319 km
Speed
7.271 km/s
True Right ascension
20h 39m 07s
True Declination
0° 00' 00"
Sunlit
Object was in daylight at epoch
Visualization orbit readout
Latitude
Unknown
Longitude
Unknown
Altitude
Unknown
Speed
Unknown
Apparent Right ascension
Unknown
Apparent Declination
Unknown
Sunlit
N/A
Visualization observer readout
Local Sidereal Time
01:22:26
Azimuth
Unknown
Elevation
Unknown
Doppler factor
Unknown
Orbital elements
Apogee altitude
1,764.465 km
Perigee altitude
1,213.178 km
Semi-major axis
7,866.958 km
Eccentricity
0.03504
Inclination
67.3168°
RAAN
309.7805°
Arg. of periapsis
54.4358°
True anomaly
305.66567°
Mean anomaly
308.8779°
Eccentric anomaly
307.28055°
Mean motion
3.11052 °/min
Orbital period
115.74 mins
BSTAR
0.0031416
Loading maneuver chart data...
Computing Atmospheric mass density...

Documentation

Showing up to 5 results
|